Temp
88 89 87 87 89 88 89 89 89 90 90 90 90 91 90 90 89 88 88 90 88 88 89 88 88 89 92 95 95 94 93 93 88 93 96 97 91 92 93 95 97 97 92
90 88 88 85 86 89 88 89 90 88 89 89 90 89 90 91 90 88 88 91 88 88 89 88 88 92 87 88 93 89 91 91 90 84 90 93 92 92 92 91 96 101 98
91 89 87 85 86 84 88 88 89 88 89 90 89 89 89 90 90 90 89 89 90 89 89 89 89 89 87 90 90 91 93 93 92 91 90 95 95 95 93 94 94 95 101
88 89 86 85 85 87 85 87 88 88 88 88 89 89 89 90 90 91 91 89 90 91 91 90 90 89 88 88 88 88 89 89 90 90 91 93 95 95 95 94 94 98 97
84 84 85 85 81 84 85 85 88 88 88 88 88 88 89 91 94 90 91 91 89 89 91 91 91 88 80 82 91 89 88 88 91 91 91 93 93 94 90 94 93 95 95
73 79 82 81 83 84 85 86 86 87 87 87 87 87 88 93 79 73 83 91 91 89 89 90 90 81 80 72 71 71 77 85 84 88 90 89 87 88 93 92 91 90 88
64 69 73 75 78 80 83 84 84 85 86 86 86 87 87 88 73 70 73 90 91 90 89 90 91 96 84 90 73 69 69 68 70 83 82 84 85 87 88 85 87 87 87
65 64 67 70 70 73 77 79 80 83 84 84 85 86 86 88 71 67 70 87 88 90 90 90 89 90 91 89 89 89 89 90 84 85 85 86 88 89 88 88 86 84 89
71 66 66 66 65 68 71 73 72 78 81 81 85 84 84 86 66 66 70 87 88 87 90 90 90 89 80 70 87 87 88 90 85 72 72 71 69 68 73 88 88 89 90
73 71 66 66 65 64 65 67 71 72 77 82 82 85 79 85 69 63 69 88 86 90 89 88 73 83 71 67 85 86 85 88 90 91 89 79 72 80 67 80 88 88 90
73 73 72 68 65 65 65 66 66 69 71 72 75 81 82 82 83 61 60 83 89 90 91 93 94 68 65 63 63 86 84 87 85 88 90 92 93 93 94 87 87 88 90
70 72 72 71 73 73 69 66 66 67 68 74 73 75 82 82 70 66 59 60 76 87 90 95 93 66 60 61 64 69 65 67 89 91 92 93 94 95 97 96 92 90 92
67 69 71 72 71 73 70 68 67 70 67 67 77 74 71 77 85 64 60 58 60 76 89 84 68 59 56 60 58 62 61 82 85 88 89 92 95 97 94 93 92 90 87
65 67 71 72 71 71 73 74 69 69 73 67 67 76 80 84 86 88 86 68 61 69 72 80 78 72 67 75 78 71 80 85 87 88 90 93 96 95 95 95 92 93 91
65 68 70 73 73 73 73 70 64 66 65 68 70 68 69 71 82 64 62 74 82 78 75 84 86 86 86 87 87 88 89 87 84 88 90 91 92 93 93 95 93 92 90
64 67 71 73 74 75 74 75 57 53 52 49 48 54 67 59 53 52 50 52 53 55 74 82 86 88 88 89 88 87 89 85 90 90 90 90 90 91 92 94 94 91 89
63 66 70 67 71 73 73 73 71 70 53 49 49 48 47 50 48 47 46 47 48 54 74 81 82 87 89 90 85 80 80 84 86 89 90 90 91 91 90 91 92 92 90
65 58 66 68 70 72 73 73 73 71 68 72 60 54 53 48 46 46 45 48 62 57 74 77 82 83 82 80 80 80 81 80 84 89 89 90 91 91 91 91 92 89 88
65 67 68 67 70 70 72 71 73 73 70 72 68 61 61 50 48 46 45 60 67 72 68 70 75 79 78 80 81 80 81 81 82 82 81 82 88 90 91 91 88 69 75
59 59 59 64 65 69 71 71 72 73 73 73 71 62 64 61 61 62 62 61 66 74 72 71 73 75 76 77 77 78 78 77 78 76 76 79 81 83 82 87 84 84 84
56 60 59 60 65 68 69 70 71 71 70 70 70 64 45 56 56 58 61 63 66 67 69 75 71 68 64 64 65 67 71 75 75 77 78 73 75 75 77 77 76 77 78
54 56 59 62 68 68 69 67 64 66 68 66 67 66 47 56 55 54 55 54 55 56 57 59 58 57 58 58 60 61 62 62 63 63 64 66 66 67 68 69 70 71 73
55 55 58 62 64 62 64 60 60 60 64 63 61 59 55 52 51 50 50 51 53 53 54 54 55 54 54 56 55 55 56 57 58 60 61 62 64 65 68 69 71 73 75
54 55 55 56 59 62 62 58 57 51 53 55 54 53 49 48 47 46 46 47 47 47 49 49 48 48 49 49 50 50 48 47 49 57 61 62 65 64 68 68 67 66 67
49 48 48 49 50 52 53 54 53 52 50 49 49 47 46 45 44 43 44 43 44 45 44 44 45 44 44 43 43 42 37 34 50 45 61 63 64 67 69 71 70 69 66
44 44 43 44 44 45 45 45 46 46 45 44 44 44 43 41 42 42 41 41 41 41 41 41 43 43 43 42 39 38 35 34 45 38 60 64 67 69 73 73 71 74 71
MSLP
1015.44 1015.84 1016.46 1016.83 1017.26 1018.00 1018.23 1018.57 1018.75 1018.85 1018.88 1019.02 1019.24 1019.49 1019.77 1019.95 1020.12 1020.66 1020.76 1020.62 1020.96 1021.01 1021.10 1021.20 1021.20 1021.21 1020.90 1020.39 1020.38 1020.30 1020.11 1019.94 1019.65 1019.10 1019.07 1018.70 1019.27 1019.08 1018.80 1018.52 1017.89 1017.44 1017.46
1014.88 1015.56 1015.94 1016.76 1016.92 1017.16 1017.73 1017.96 1018.26 1018.49 1018.59 1018.82 1018.97 1019.34 1019.36 1019.57 1019.75 1020.06 1020.32 1020.27 1020.73 1020.77 1020.82 1020.94 1020.92 1020.79 1021.07 1020.90 1020.45 1020.41 1020.14 1020.20 1020.06 1019.62 1019.35 1019.00 1018.76 1018.80 1018.49 1018.43 1017.71 1017.17 1017.02
1014.31 1015.03 1015.68 1016.26 1016.61 1016.79 1016.98 1017.53 1017.77 1017.98 1018.22 1018.35 1018.63 1018.93 1019.04 1019.23 1019.40 1019.63 1019.77 1019.93 1020.16 1020.42 1020.47 1020.44 1020.48 1020.55 1020.64 1020.41 1020.36 1020.11 1019.73 1019.71 1019.67 1019.36 1018.99 1018.70 1018.37 1018.30 1018.09 1017.77 1017.48 1017.16 1016.34
1014.36 1014.77 1015.41 1015.98 1016.28 1016.46 1016.78 1016.96 1017.33 1017.60 1017.81 1018.02 1018.27 1018.55 1018.74 1018.93 1019.10 1019.15 1019.31 1019.46 1019.57 1019.64 1019.76 1019.86 1019.96 1020.11 1020.28 1020.45 1020.46 1020.35 1020.27 1020.06 1019.43 1019.28 1018.72 1018.22 1017.90 1017.73 1017.68 1017.27 1016.96 1016.58 1016.39
1015.42 1015.28 1015.18 1015.53 1016.27 1016.43 1016.50 1016.70 1016.78 1017.12 1017.31 1017.56 1017.83 1018.09 1018.36 1018.48 1018.48 1018.77 1018.86 1018.91 1019.04 1019.08 1019.09 1019.21 1019.43 1019.66 1019.68 1020.36 1020.26 1020.04 1020.05 1019.83 1019.33 1018.80 1018.32 1017.94 1017.60 1017.32 1017.52 1017.33 1016.99 1016.57 1016.17
1017.13 1016.27 1015.77 1015.79 1015.80 1015.90 1016.11 1016.22 1016.42 1016.50 1016.76 1017.02 1017.22 1017.41 1017.64 1017.75 1017.74 1018.24 1018.53 1018.38 1018.40 1018.48 1018.46 1018.59 1018.80 1019.16 1019.78 1019.86 1020.17 1020.22 1020.50 1020.18 1019.80 1019.22 1018.46 1017.94 1017.98 1017.96 1017.31 1017.34 1017.25 1016.64 1016.18
1018.24 1017.68 1017.42 1016.86 1016.26 1016.06 1016.01 1016.02 1016.08 1016.18 1016.29 1016.38 1016.59 1016.77 1016.88 1017.17 1017.36 1017.72 1018.04 1018.22 1017.80 1017.80 1017.91 1018.00 1018.07 1017.99 1018.70 1019.14 1019.51 1019.85 1020.16 1020.07 1019.73 1019.22 1018.72 1018.29 1017.96 1017.95 1017.84 1017.74 1017.36 1017.14 1016.62
1018.91 1018.76 1018.46 1017.83 1017.14 1016.78 1016.49 1016.21 1016.06 1015.97 1015.90 1015.97 1016.00 1016.16 1016.32 1016.39 1016.72 1017.15 1017.53 1017.79 1017.56 1017.26 1017.21 1017.38 1017.55 1017.55 1017.69 1018.17 1018.54 1018.46 1018.48 1018.19 1018.17 1018.37 1018.16 1017.89 1017.59 1017.54 1017.56 1017.36 1017.32 1017.30 1016.48
1019.03 1019.25 1019.02 1018.57 1018.22 1017.14 1017.10 1017.08 1016.74 1016.10 1015.72 1015.67 1015.52 1015.52 1015.62 1015.80 1016.04 1016.45 1016.98 1017.09 1016.80 1016.65 1016.52 1016.64 1016.82 1016.93 1017.13 1017.55 1017.78 1017.58 1017.37 1016.87 1016.50 1017.14 1017.26 1017.28 1017.46 1017.56 1017.72 1017.41 1016.66 1016.12 1015.17
1018.75 1018.79 1019.08 1019.00 1017.90 1017.05 1017.72 1017.76 1017.17 1016.56 1015.88 1015.34 1015.14 1014.94 1014.89 1015.04 1015.35 1015.82 1016.32 1016.16 1015.68 1015.48 1015.54 1015.74 1015.93 1016.15 1016.36 1016.74 1017.04 1016.91 1016.66 1016.22 1016.12 1016.01 1016.56 1016.62 1016.91 1016.54 1017.13 1017.07 1016.32 1015.50 1014.70
1019.11 1018.84 1018.59 1018.63 1018.72 1018.52 1017.78 1017.81 1017.48 1016.50 1016.02 1015.49 1015.21 1014.86 1014.62 1014.40 1014.58 1015.02 1015.48 1015.67 1014.74 1014.35 1014.12 1013.92 1014.26 1014.74 1015.34 1015.78 1016.06 1016.06 1015.71 1015.86 1015.68 1015.78 1015.60 1015.23 1014.84 1014.75 1014.64 1015.18 1015.19 1015.06 1014.25
1019.57 1018.91 1018.51 1018.42 1018.17 1017.97 1017.88 1017.90 1017.24 1016.38 1015.93 1015.22 1015.00 1014.71 1014.06 1013.84 1014.07 1014.24 1014.46 1014.83 1014.46 1013.90 1013.12 1012.70 1012.92 1013.42 1013.92 1014.42 1015.05 1015.19 1015.37 1015.67 1015.36 1014.77 1014.10 1013.63 1013.34 1013.12 1013.02 1013.09 1013.36 1013.81 1013.73
1019.73 1019.00 1018.41 1018.07 1018.00 1017.64 1017.42 1017.37 1016.82 1016.23 1016.03 1015.18 1014.19 1013.82 1013.79 1013.36 1012.63 1013.03 1013.49 1013.73 1013.70 1014.01 1012.94 1012.49 1012.54 1012.86 1013.30 1013.66 1013.91 1014.28 1014.64 1015.03 1014.51 1013.79 1013.10 1012.65 1012.42 1012.27 1012.41 1012.49 1012.74 1013.06 1013.40
1019.32 1018.65 1017.92 1017.42 1017.19 1017.30 1017.00 1016.52 1016.60 1016.26 1015.32 1015.18 1014.57 1013.58 1012.95 1012.26 1011.81 1012.11 1012.17 1013.02 1013.04 1013.44 1013.11 1012.57 1012.34 1012.46 1012.50 1012.54 1012.92 1013.49 1013.69 1013.48 1012.92 1012.40 1012.10 1011.80 1011.67 1011.56 1011.47 1011.65 1011.88 1011.81 1011.74
1018.78 1018.12 1017.34 1016.72 1016.30 1015.96 1015.79 1015.97 1015.90 1015.79 1015.63 1015.06 1014.40 1014.35 1013.88 1013.37 1012.02 1012.06 1013.04 1012.35 1011.45 1011.62 1012.18 1011.73 1011.27 1011.24 1011.18 1011.17 1011.32 1011.46 1011.37 1011.74 1012.06 1011.69 1011.23 1010.97 1010.81 1010.72 1010.61 1010.77 1010.74 1010.77 1010.72
1018.24 1017.50 1016.68 1016.02 1015.62 1015.24 1014.89 1014.28 1014.53 1014.82 1014.60 1014.71 1014.55 1014.58 1014.29 1013.95 1013.43 1012.85 1012.58 1012.03 1011.64 1011.66 1011.89 1010.88 1009.67 1009.42 1009.23 1009.32 1009.52 1009.84 1010.03 1009.99 1009.94 1010.08 1010.06 1010.13 1010.06 1009.88 1009.78 1009.74 1009.76 1009.87 1009.84
1017.58 1017.00 1016.27 1015.96 1015.43 1014.60 1014.32 1013.90 1013.36 1013.16 1013.60 1013.53 1013.55 1013.46 1013.14 1013.24 1012.66 1012.10 1012.07 1011.64 1011.28 1011.64 1010.82 1009.79 1009.02 1008.40 1008.04 1008.12 1008.66 1009.52 1009.71 1009.88 1009.94 1009.51 1009.23 1009.11 1009.15 1009.05 1009.00 1009.07 1009.01 1008.82 1008.90
1016.72 1016.49 1016.08 1015.44 1015.00 1014.24 1013.78 1013.40 1013.09 1012.88 1012.80 1012.47 1012.39 1012.76 1012.36 1012.66 1012.23 1011.40 1011.31 1011.56 1010.84 1010.68 1009.78 1008.98 1008.25 1008.03 1007.84 1008.22 1008.53 1008.75 1008.90 1009.28 1009.11 1008.62 1008.46 1008.53 1008.40 1008.26 1008.08 1007.96 1008.05 1008.33 1008.36
1015.98 1015.36 1014.89 1014.78 1014.32 1013.69 1013.38 1013.05 1012.52 1012.00 1012.09 1011.88 1011.98 1012.27 1012.02 1011.91 1011.38 1010.88 1010.82 1011.00 1009.32 1008.84 1008.45 1008.40 1008.06 1007.79 1007.77 1007.69 1007.73 1007.95 1008.13 1008.38 1008.42 1008.46 1008.44 1008.23 1007.92 1007.66 1007.28 1007.24 1007.94 1008.45 1008.34
1015.94 1015.49 1015.20 1014.59 1014.40 1013.39 1012.84 1012.25 1011.67 1011.40 1011.10 1011.04 1011.10 1011.55 1011.20 1011.48 1011.13 1010.61 1010.34 1009.93 1008.88 1007.98 1007.72 1007.81 1007.60 1007.59 1007.63 1007.40 1007.32 1007.35 1007.59 1007.74 1007.84 1007.96 1008.06 1007.94 1007.77 1007.63 1007.59 1007.26 1007.71 1007.71 1007.38
1015.98 1014.96 1014.61 1014.50 1013.61 1012.81 1012.30 1011.60 1011.35 1011.15 1011.08 1011.13 1010.96 1011.17 1012.04 1011.76 1011.42 1010.80 1010.03 1009.81 1008.59 1008.35 1007.85 1007.01 1007.07 1007.49 1007.91 1008.12 1008.10 1007.93 1007.66 1007.51 1007.34 1007.15 1007.38 1007.59 1007.66 1007.73 1007.68 1007.61 1007.74 1007.70 1007.52
1016.03 1015.14 1014.32 1013.42 1012.30 1011.92 1011.67 1011.80 1011.75 1011.35 1011.05 1011.06 1010.76 1010.78 1011.65 1011.11 1011.69 1011.00 1010.32 1010.06 1009.53 1009.03 1008.66 1008.50 1008.30 1008.44 1008.47 1009.12 1009.21 1008.94 1008.61 1008.23 1008.21 1008.20 1008.32 1008.06 1007.98 1007.99 1007.81 1007.64 1007.57 1007.45 1007.22
1015.51 1014.78 1013.95 1012.91 1012.12 1011.87 1011.80 1012.04 1011.71 1011.46 1011.11 1011.24 1011.41 1011.26 1011.58 1011.64 1011.66 1011.66 1010.67 1010.79 1010.44 1009.94 1009.67 1009.10 1008.40 1008.06 1008.99 1009.45 1009.92 1009.66 1009.36 1008.70 1008.46 1008.65 1008.51 1008.25 1007.82 1007.60 1007.47 1007.43 1007.24 1007.00 1006.70
1015.24 1014.47 1014.00 1013.52 1012.84 1012.06 1011.58 1011.76 1011.91 1011.84 1012.09 1011.86 1011.81 1011.59 1011.88 1011.84 1012.02 1012.22 1011.16 1011.22 1011.09 1010.47 1010.60 1010.37 1010.52 1008.36 1010.28 1010.88 1010.61 1009.80 1009.28 1008.96 1009.33 1008.78 1008.66 1008.37 1007.66 1007.21 1007.03 1007.26 1007.38 1007.12 1006.96
1015.63 1015.27 1014.94 1014.25 1013.56 1013.02 1012.61 1012.04 1012.07 1012.13 1012.05 1012.11 1012.12 1012.16 1012.13 1012.13 1012.07 1012.08 1011.52 1011.68 1011.83 1011.08 1011.11 1011.00 1009.69 1010.04 1010.73 1010.71 1010.17 1009.76 1009.56 1008.90 1008.72 1009.54 1008.84 1008.18 1007.62 1007.31 1007.27 1007.04 1007.10 1007.03 1006.97
1016.15 1015.61 1015.09 1014.58 1014.06 1013.65 1013.38 1013.00 1012.79 1012.65 1012.55 1012.65 1012.64 1012.74 1012.61 1012.32 1012.22 1012.51 1012.01 1011.81 1012.16 1011.83 1011.65 1011.12 1010.74 1010.68 1010.96 1011.39 1010.92 1010.42 1010.02 1009.60 1009.29 1009.06 1008.39 1008.16 1007.73 1007.50 1007.24 1007.16 1007.33 1007.08 1007.15
Wind_Speed
14 13 13 12 13 12 12 12 12 10 9 9 8 9 10 9 9 8 5 3 7 6 5 6 7 5 7 5 5 5 5 6 7 8 8 7 9 8 10 9 10 10 6
10 11 13 11 9 13 12 12 12 12 11 10 10 10 9 9 10 10 9 7 8 7 8 7 8 7 7 7 7 5 7 6 7 9 8 8 7 7 8 9 7 9 8
11 10 11 12 13 11 13 12 12 12 13 12 11 11 11 10 11 11 11 10 10 9 9 9 9 8 8 8 6 7 6 6 6 8 8 8 7 8 7 7 7 7 7
7 8 9 11 12 13 10 11 13 12 12 13 13 12 12 11 11 12 12 12 11 11 11 11 10 10 10 9 8 8 8 8 8 9 9 8 7 6 6 7 8 7 8
7 7 8 9 9 12 11 12 13 13 13 13 13 14 14 12 11 13 13 12 12 11 11 11 11 11 8 8 8 8 7 8 9 9 8 8 8 6 8 7 8 8 8
10 8 7 7 6 9 10 11 12 14 14 13 14 15 15 13 13 11 12 13 13 12 11 12 12 10 11 11 11 12 11 9 10 9 9 9 7 9 7 8 9 9 8
10 9 8 8 7 8 9 10 12 13 13 14 15 15 16 16 11 13 15 15 13 13 13 12 12 12 14 13 15 15 13 14 14 12 12 12 11 9 9 9 8 9 10
10 10 11 10 7 8 9 9 10 11 12 13 14 15 16 14 12 14 15 17 15 15 15 15 14 14 12 13 13 13 14 14 13 11 14 15 14 11 9 9 9 9 11
12 11 12 11 9 6 8 9 9 10 10 10 13 15 16 16 13 16 13 17 18 17 16 16 16 15 14 12 15 15 14 14 11 14 15 14 11 9 6 9 10 10 11
11 11 8 11 10 11 6 7 9 9 11 11 12 15 15 16 12 14 15 14 16 15 16 17 16 19 14 15 16 16 15 15 14 14 10 13 14 14 14 14 11 12 11
12 12 11 8 8 7 8 7 8 7 8 6 10 14 14 15 16 14 17 16 15 14 15 15 16 21 22 18 16 16 16 13 12 11 12 12 12 13 12 12 12 12 12
13 13 11 11 9 8 10 8 7 6 8 10 10 10 10 12 14 13 17 22 18 16 16 14 15 14 20 21 17 19 12 9 13 14 13 13 12 12 11 10 11 12 11
14 14 13 11 10 10 8 12 8 6 6 7 10 8 7 8 10 16 17 21 23 17 16 15 12 5 8 12 16 13 13 12 14 14 15 14 13 12 9 8 8 9 11
15 15 13 12 11 11 9 7 8 9 5 5 7 10 11 10 12 12 10 10 18 14 20 17 16 13 12 11 10 13 12 14 14 14 14 13 12 12 11 11 11 11 12
15 14 14 12 12 10 10 8 7 9 10 8 6 9 8 10 13 12 13 12 9 13 12 12 14 14 14 14 14 14 13 13 14 14 13 13 13 12 12 11 11 11 12
15 13 12 10 10 10 10 11 11 14 16 15 15 11 11 16 18 19 23 21 19 12 7 13 14 14 15 14 13 12 13 14 13 13 13 13 14 14 13 12 12 12 12
16 16 12 10 12 11 10 10 12 7 11 13 16 15 13 18 17 16 20 18 12 6 11 14 13 14 14 13 9 10 10 11 13 13 13 13 13 13 12 12 12 12 12
17 16 14 11 12 12 10 10 10 10 11 11 10 9 10 12 11 12 14 10 4 7 12 12 14 12 10 6 7 8 9 8 11 13 13 13 13 13 13 13 12 12 11
15 13 13 11 12 11 11 11 11 11 11 11 8 9 9 7 13 14 9 11 10 10 8 9 9 10 9 9 10 10 11 11 12 10 10 10 12 12 13 12 11 14 12
12 18 13 11 12 13 11 11 10 11 11 11 10 7 7 10 10 9 5 7 7 9 6 8 9 10 10 9 9 9 9 9 10 9 9 10 11 10 10 11 12 13 11
9 11 11 12 13 12 12 10 9 9 9 10 10 6 3 6 10 8 7 8 5 4 4 3 1 2 2 4 4 3 3 6 8 9 9 4 4 7 7 7 8 9 10
10 11 11 13 12 11 10 7 9 9 9 9 9 8 7 6 7 7 6 5 5 5 3 2 2 2 4 4 4 4 3 2 2 2 4 3 3 4 5 5 5 5 6
11 11 13 12 11 10 7 8 9 8 9 8 8 7 6 6 5 6 4 5 3 3 3 3 3 6 5 4 4 3 3 1 3 2 4 5 4 5 5 6 6 7 9
12 12 11 11 11 11 9 6 8 7 7 8 6 5 5 4 4 5 3 4 3 4 3 3 3 12 5 2 1 4 6 5 4 5 6 6 5 4 4 4 4 4 4
9 9 10 9 9 9 9 8 8 7 6 5 5 4 3 2 2 2 3 3 3 4 5 4 7 10 9 9 8 8 6 10 7 8 5 2 3 3 3 2 1 2 2
8 7 6 6 6 6 6 7 6 5 4 3 3 2 1 2 3 3 4 5 4 5 6 6 9 12 11 8 9 9 5 7 5 7 5 4 4 4 3 4 5 5 6
Wind_Direction
219 219 213 215 207 211 213 215 221 217 214 222 208 213 198 197 197 200 248 231 215 223 243 233 235 254 263 253 250 262 273 276 285 300 323 326 320 317 326 328 308 297 104
224 221 220 221 215 209 220 217 214 218 214 219 221 219 216 218 203 201 211 228 226 230 231 237 240 235 226 244 258 262 299 311 289 297 302 296 302 316 305 314 318 321 331
206 222 224 222 216 219 219 222 220 216 222 219 220 226 228 222 214 210 215 218 224 232 240 236 242 235 237 266 249 281 257 242 249 271 297 290 307 295 318 295 293 316 308
296 212 238 240 232 231 230 224 224 220 218 223 222 223 228 233 226 224 217 221 223 230 235 237 240 239 243 244 243 252 259 268 262 261 271 286 292 301 277 301 321 318 341
296 275 248 214 206 244 228 232 229 225 223 223 221 223 226 232 233 222 228 225 228 232 235 228 230 240 243 251 256 231 262 255 264 272 278 283 288 319 325 314 298 320 312
358 336 306 299 282 229 247 238 238 234 228 227 226 225 226 231 222 207 232 234 234 236 237 226 236 204 224 231 236 256 271 261 258 278 286 289 298 278 289 307 318 317 312
358 357 345 357 331 279 262 250 245 241 241 234 231 230 230 229 224 202 204 235 243 235 239 240 233 229 210 234 217 231 245 245 244 262 268 270 282 279 287 289 291 309 298
14 3 358 347 352 345 321 273 255 251 246 242 240 237 238 234 215 203 204 228 238 243 242 239 239 248 240 226 238 239 236 239 223 228 240 258 262 262 263 268 286 283 267
2 357 351 352 335 354 329 314 330 277 253 251 246 240 240 242 211 206 197 232 239 240 238 237 240 240 237 212 239 251 253 256 246 219 238 254 260 276 275 286 272 272 280
345 345 345 329 332 352 325 309 305 302 275 260 256 249 242 247 221 204 204 232 235 238 232 234 227 239 229 207 227 241 248 251 258 270 231 246 247 250 217 234 251 256 267
329 324 331 338 323 315 307 295 289 293 269 275 258 256 257 254 244 200 202 231 240 233 237 238 234 210 221 222 218 238 240 251 253 254 254 255 252 246 237 206 224 247 260
314 310 308 312 316 312 314 299 289 297 279 269 262 271 261 250 246 232 204 216 240 245 248 240 240 209 208 216 209 234 241 258 257 260 257 256 255 253 253 236 224 223 248
300 297 297 296 297 301 301 303 298 280 289 273 273 250 250 273 272 226 214 213 229 240 246 251 277 270 213 211 224 227 216 234 246 248 250 252 254 257 267 262 253 245 244
289 287 283 284 284 284 289 279 285 290 287 289 275 274 264 247 243 254 249 216 232 235 245 252 253 261 261 256 219 213 233 240 236 238 246 253 256 252 246 235 248 252 237
280 281 281 278 278 283 269 281 279 273 288 291 271 292 288 280 277 330 325 302 240 233 242 239 235 230 236 234 231 235 230 218 231 241 249 252 250 251 249 247 248 252 254
275 267 264 278 284 278 286 287 215 236 255 264 259 238 267 268 282 285 290 283 285 249 220 239 238 234 234 231 233 234 235 234 238 234 236 241 249 249 248 246 246 246 254
266 269 270 261 265 271 279 284 292 271 233 246 264 263 245 262 282 282 281 284 258 203 234 244 242 245 240 237 216 221 229 229 245 251 251 250 246 249 245 249 258 253 241
261 259 265 264 268 265 268 275 279 289 295 294 251 244 286 285 288 290 283 256 222 220 239 234 241 239 246 237 229 228 226 223 242 247 241 244 247 247 247 246 247 258 251
268 257 255 259 263 272 282 277 272 275 271 278 283 301 276 330 315 288 286 241 230 227 208 232 235 250 247 246 233 227 228 225 229 233 240 256 256 258 256 248 243 242 258
269 261 275 272 267 267 261 262 263 268 278 285 291 292 326 324 318 312 271 239 265 244 204 210 227 235 246 251 244 240 233 228 221 225 236 242 245 252 259 245 238 247 235
290 280 247 249 257 259 259 264 272 270 273 280 286 305 38 310 305 292 302 312 255 298 322 261 322 24 34 352 342 327 294 256 233 223 224 218 257 260 254 246 247 252 248
277 275 267 256 257 256 253 263 267 263 265 272 288 303 342 314 299 304 319 319 330 342 336 277 87 55 38 350 304 297 286 295 334 317 285 256 237 255 261 259 259 276 265
280 274 275 273 268 264 258 260 269 268 280 277 281 291 304 302 309 304 325 325 338 20 349 3 101 79 52 15 340 332 306 346 356 313 267 252 237 236 237 254 263 271 258
285 282 283 289 290 297 286 262 269 264 270 277 277 284 283 302 306 294 349 335 330 32 41 54 359 86 75 64 52 21 23 6 309 307 277 268 256 209 240 249 266 294 311
310 303 292 286 283 285 289 281 270 272 273 275 277 271 281 307 343 344 41 31 353 56 56 47 66 60 51 34 41 40 11 360 27 300 261 341 356 351 275 228 267 298 31
320 301 296 294 289 289 284 282 277 277 273 258 254 249 202 106 72 37 59 53 31 47 49 44 58 61 56 29 26 7 2 8 24 340 4 6 4 23 331 356 15 2 12